一网星座-0222星 (ONEWEB-0222 )

导读

ONEWEB-0222是英国OneWeb星座的低轨互联网卫星,于2021年5月28日发射升空,属于OneWeb一期组网卫星。卫星重约147.5千克,配备Ku/Ka波段天线与氙离子推进器,发射后经轨道提升进入1200公里工作轨道。它为全球提供高速低延迟互联网接入,服务航空、海运等领域,助力缩小数字鸿沟,设计寿命5年,到期后会主动离轨减缓空间碎片问题。

基本信息
目录编号:
48775
目录名称:
ONEWEB-0222
国际标识:
2021-045J
轨道中心:
EARTH
卫星名称:
一网星座-0222星
卫星全名:
一网星座-0222星 (ONEWEB-0222 )
卫星状态:
在轨 (已飞行1843 天)
发射日期:
2021-05-28 UTC
国别 :
英国 (GB)
星等 :
--
轨道信息
数据来源 国际轨道数据
星历时间: 2026-06-14T02:40:03+0800
15小时前
查看轨道信息
半长轴: 7579.908km
偏心率: 0.0001799
轨道倾角: 87.901°
近地点辐角 106.337°
升交点赤经 259.865°
平近点角 253.796°
近地点: 1200.407km
远地点: 1203.135km
周期: 109.460分钟
每日圈数: 13.155485
详细信息
平衡模式:
三轴稳定
覆盖范围:
全球
运营商:
一网卫星公司
运营商所在国:
英国
制造商(研发单位):
一网卫星公司
制造商所在国:
英国
使用方式:
暂无
卫星简介
OneWeb卫星网络由648颗重约125公斤的微型卫星组成,运行在1200公里的轨道上。 每颗卫星都能够提供至少每秒8千兆位的吞吐量,以使用其高吞吐量的Ku频段有效载荷为家庭和移动平台提供互联网接入。该卫星仍在工作。
2D轨道图
3D轨道图
轨道高度分析图
轨道倾角分析图
轨道综合分析图
查看轨道综合分析图